Location: Hains Lake
(37.8540°N, 99.8578°W)
Time: 05:13:44
(UTC+00:00)

Vanguard 2 Rocket - Pass Details

Date: 23 April 2021
Orbit: 553 x 3326 km, 32.9° (Epoch: 07 May)

Event Time Altitude Azimuth Distance (km) Brightness Sun altitude
Rises 15:37:28 0° 183° (S) 5,040 10.9 42.8°
Reaches altitude 10° 15:42:09 10° 164° (SSE) 4,548 11.0 43.7°
Maximum altitude 15:49:55 18° 128° (SE) 4,636 11.7 45.1°
Drops below altitude 10° 15:59:36 10° 94° (E) 5,900 11.9 46.8°
Sets 16:07:08 0° 79° (E) 7,217 12.0 48.2°
